DW6304 Weather Reports


Display with metric or nautical units.
time (UTC)temp
F
wind
direction
speed
MPH
gust
MPH
rain 1hr
in
rain 24hr
in
rain mn
in
humidity
%
barometer
mb
20260504010052 47 269 0.0 2.0 0.00 0.03 0.03 74 1007.6
20260504004545 48 269 0.0 0.0 0.00 0.03 0.03 74 1007.5
20260504003039 48 269 1.0 3.0 0.00 0.03 0.03 72 1007.8
20260504001540 49 269 1.0 6.0 0.00 0.03 0.03 71 1008.0
20260504000038 49 271 2.0 7.0 0.00 0.03 0.03 71 1007.9
20260503234540 48 277 3.0 9.0 0.00 0.03 0.03 71 1008.1
20260503233036 48 233 2.0 10.0 0.00 0.03 0.03 71 1008.2
20260503231535 48 259 2.0 6.0 0.00 0.03 0.03 72 1008.3
20260503230045 48 225 2.0 10.0 0.01 0.03 0.03 72 1008.3
20260503224533 47 236 2.0 8.0 0.02 0.03 0.03 73 1008.5
20260503223033 47 251 2.0 7.0 0.02 0.03 0.03 73 1008.5
20260503221534 46 269 1.0 8.0 0.03 0.03 0.03 73 1008.5
20260503220036 47 275 2.0 8.0 0.02 0.02 0.02 71 1008.8
20260503214542 48 264 5.0 13.0 0.02 0.02 0.02 69 1009.0
20260503213033 49 265 2.0 11.0 0.01 0.01 0.01 66 1008.8
20260503211529 50 259 4.0 13.0 0.00 0.00 0.00 61 1008.6
20260503210027 52 281 2.0 8.0 0.00 0.00 0.00 52 1008.3
20260503204529 52 261 0.0 4.0 0.00 0.00 0.00 48 1008.2
20260503203026 52 118 1.0 3.0 0.00 0.00 0.00 47 1008.3
20260503201524 52 118 2.0 5.0 0.00 0.00 0.00 47 1008.1
20260503200024 53 142 1.0 9.0 0.00 0.00 0.00 43 1008.7
20260503194523 54 155 2.0 8.0 0.00 0.00 0.00 41 1008.5
20260503193022 54 207 2.0 6.0 0.00 0.00 0.00 41 1008.7
20260503191518 53 186 3.0 12.0 0.00 0.00 0.00 39 1009.4
20260503190017 55 184 2.0 7.0 0.00 0.00 0.00 37 1009.5
20260503184513 55 196 2.0 6.0 0.00 0.00 0.00 37 1009.7
20260503183011 53 213 1.0 7.0 0.00 0.00 0.00 37 1009.9
20260503181523 54 192 2.0 8.0 0.00 0.00 0.00 38 1010.3
20260503180016 54 228 2.0 9.0 0.00 0.00 0.00 38 1010.5
20260503174507 54 136 3.0 9.0 0.00 0.00 0.00 38 1010.5
20260503173004 54 214 2.0 11.0 0.00 0.00 0.00 37 1010.8
20260503171505 54 171 2.0 9.0 0.00 0.00 0.00 37 1011.0
20260503081528 28 297 0.0 0.0 0.00 0.00 0.00 70 1013.7
20260503071524 29 297 0.0 0.0 0.00 0.00 0.00 69 1013.7
20260503054519 30 297 0.0 0.0 0.00 0.00 0.00 70 1014.3
20260503053017 30 297 0.0 0.0 0.00 0.00 0.00 70 1014.3
20260503051511 30 297 0.0 0.0 0.00 0.00 0.00 70 1014.4
20260503050010 31 297 0.0 0.0 0.00 0.00 0.00 69 1014.4
20260503044507 32 297 0.0 0.0 0.00 0.00 0.00 69 1014.5
20260503043005 32 297 0.0 0.0 0.00 0.00 0.00 68 1014.6
20260503041504 32 297 0.0 1.0 0.00 0.00 0.00 69 1014.6
20260503040101 32 297 0.0 0.0 0.00 0.00 0.00 69 1014.6
20260503034601 31 297 0.0 0.0 0.00 0.00 0.00 68 1014.6
20260503033117 32 297 0.0 0.0 0.00 0.00 0.00 68 1014.6
20260503031558 32 297 0.0 0.0 0.00 0.00 0.00 67 1014.6
20260503030107 32 297 0.0 0.0 0.00 0.00 0.00 67 1014.6
20260503024602 33 297 0.0 0.0 0.00 0.00 0.00 66 1014.7
20260503023057 33 297 0.0 0.0 0.00 0.00 0.00 65 1014.8
20260503021604 34 297 0.0 0.0 0.00 0.00 0.00 63 1014.9
20260503020106 34 297 0.0 0.0 0.00 0.00 0.00 62 1014.8
20260503014555 35 297 0.0 0.0 0.00 0.00 0.00 60 1014.7
20260503013056 36 297 0.0 0.0 0.00 0.00 0.00 58 1014.8
20260503011604 37 297 0.0 0.0 0.00 0.00 0.00 56 1014.7